UVA7946 KMIA-MYBS

Flight info

Callsign UVA7946
Flight time 0h 24m
Altitude 7000
Route DCT
Aircraft DC3/M-SDF/S

Departure

Time 2026-05-04 02:10
Airport Miami International Airport (KMIA)

Arrival

Time 2026-05-04 02:34
Airport South Bimini Airport (MYBS)
Time Latitude Longitude Altitude Speed Heading
2026-05-04 01:54 25.79894 -80.27317 22 ft 0 kts 167°
2026-05-04 01:59 25.79908 -80.27320 22 ft 2 kts 167°
2026-05-04 01:59 25.79923 -80.27326 22 ft 2 kts 147°
2026-05-04 02:00 25.79931 -80.27317 26 ft 2 kts 294°
2026-05-04 02:00 25.79930 -80.27315 26 ft 0 kts 309°
2026-05-04 02:02 25.79932 -80.27318 23 ft 2 kts 309°
2026-05-04 02:02 25.79951 -80.27328 23 ft 5 kts 347°
2026-05-04 02:02 25.79989 -80.27347 24 ft 8 kts 295°
2026-05-04 02:02 25.79991 -80.27439 20 ft 16 kts 267°
2026-05-04 02:03 25.79986 -80.27584 18 ft 21 kts 269°
2026-05-04 02:03 25.79979 -80.27760 17 ft 24 kts 266°
2026-05-04 02:03 25.79970 -80.27950 14 ft 24 kts 267°
2026-05-04 02:03 25.79969 -80.28115 15 ft 18 kts 295°
2026-05-04 02:04 25.80038 -80.28198 16 ft 14 kts 277°
2026-05-04 02:04 25.80037 -80.28310 17 ft 16 kts 268°
2026-05-04 02:04 25.80033 -80.28442 17 ft 18 kts 268°
2026-05-04 02:04 25.80028 -80.28583 20 ft 19 kts 267°
2026-05-04 02:05 25.80023 -80.28727 24 ft 19 kts 266°
2026-05-04 02:05 25.80014 -80.28878 23 ft 21 kts 266°
2026-05-04 02:05 25.80005 -80.29046 22 ft 23 kts 268°
2026-05-04 02:05 25.79999 -80.29224 23 ft 24 kts 267°
2026-05-04 02:06 25.79993 -80.29418 17 ft 27 kts 269°
2026-05-04 02:06 25.79985 -80.29627 16 ft 26 kts 267°
2026-05-04 02:06 25.79978 -80.29818 14 ft 24 kts 266°
2026-05-04 02:06 25.79979 -80.29973 13 ft 1 kts 286°
2026-05-04 02:07 25.79980 -80.29977 13 ft 2 kts 286°
2026-05-04 02:07 25.79988 -80.30006 13 ft 6 kts 287°
2026-05-04 02:07 25.80003 -80.30063 15 ft 9 kts 287°
2026-05-04 02:08 25.80038 -80.30128 17 ft 11 kts 340°
2026-05-04 02:08 25.80075 -80.30091 16 ft 8 kts 89°
2026-05-04 02:08 25.80077 -80.30033 15 ft 10 kts 88°
2026-05-04 02:08 25.80092 -80.29776 16 ft 54 kts 90°
2026-05-04 02:09 25.80121 -80.29248 42 ft 77 kts 86°
2026-05-04 02:09 25.80145 -80.28589 82 ft 100 kts 85°
2026-05-04 02:09 25.80170 -80.27747 243 ft 113 kts 85°
2026-05-04 02:09 25.80190 -80.26878 576 ft 110 kts 87°
2026-05-04 02:10 25.80186 -80.26045 819 ft 111 kts 89°
2026-05-04 02:10 25.80198 -80.25193 1032 ft 116 kts 86°
2026-05-04 02:10 25.80280 -80.24244 1145 ft 129 kts 80°
2026-05-04 02:10 25.80639 -80.23331 1341 ft 131 kts 62°
2026-05-04 02:11 25.81025 -80.22455 1754 ft 116 kts 64°
2026-05-04 02:11 25.81340 -80.21650 2039 ft 113 kts 70°
2026-05-04 02:11 25.81560 -80.20819 2265 ft 115 kts 77°
2026-05-04 02:11 25.81690 -80.19879 2359 ft 128 kts 83°
2026-05-04 02:12 25.81773 -80.18905 2582 ft 127 kts 83°
2026-05-04 02:12 25.81901 -80.17925 2717 ft 134 kts 78°
2026-05-04 02:12 25.82086 -80.16881 2833 ft 140 kts 79°
2026-05-04 02:12 25.82254 -80.15795 2977 ft 143 kts 81°
2026-05-04 02:13 25.82384 -80.14703 3127 ft 145 kts 86°
2026-05-04 02:13 25.82419 -80.13583 3285 ft 145 kts 89°
2026-05-04 02:13 25.82422 -80.12459 3446 ft 145 kts 90°
2026-05-04 02:13 25.82414 -80.11343 3599 ft 146 kts 91°
2026-05-04 02:14 25.82385 -80.10214 3749 ft 147 kts 92°
2026-05-04 02:14 25.82349 -80.09079 3907 ft 147 kts 92°
2026-05-04 02:14 25.82320 -80.07954 4069 ft 147 kts 92°
2026-05-04 02:14 25.82280 -80.06820 4243 ft 146 kts 95°
2026-05-04 02:15 25.82180 -80.05694 4415 ft 146 kts 98°
2026-05-04 02:15 25.82066 -80.04565 4573 ft 146 kts 98°
2026-05-04 02:15 25.81959 -80.03466 4768 ft 144 kts 98°
2026-05-04 02:15 25.81853 -80.02352 4945 ft 144 kts 98°
2026-05-04 02:16 25.81748 -80.01242 5121 ft 145 kts 98°
2026-05-04 02:16 25.81647 -80.00138 5297 ft 145 kts 98°
2026-05-04 02:16 25.81546 -79.99017 5489 ft 146 kts 98°
2026-05-04 02:16 25.81443 -79.97896 5666 ft 146 kts 98°
2026-05-04 02:17 25.81339 -79.96771 5847 ft 146 kts 98°
2026-05-04 02:17 25.81237 -79.95661 6022 ft 146 kts 98°
2026-05-04 02:17 25.81134 -79.94535 6204 ft 147 kts 98°
2026-05-04 02:17 25.81030 -79.93400 6388 ft 147 kts 98°
2026-05-04 02:18 25.80927 -79.92273 6556 ft 147 kts 99°
2026-05-04 02:18 25.80820 -79.91154 6717 ft 147 kts 99°
2026-05-04 02:18 25.80714 -79.90005 6879 ft 150 kts 98°
2026-05-04 02:18 25.80609 -79.88808 6960 ft 160 kts 98°
2026-05-04 02:19 25.80500 -79.87553 6996 ft 171 kts 98°
2026-05-04 02:19 25.80388 -79.86191 6992 ft 181 kts 97°
2026-05-04 02:19 25.80275 -79.84763 7011 ft 188 kts 97°
2026-05-04 02:19 25.80166 -79.83321 7049 ft 191 kts 97°
2026-05-04 02:20 25.80064 -79.81829 7074 ft 195 kts 96°
2026-05-04 02:20 25.79962 -79.80331 7085 ft 198 kts 96°
2026-05-04 02:20 25.79864 -79.78786 7071 ft 202 kts 96°
2026-05-04 02:20 25.79777 -79.77224 7052 ft 204 kts 95°
2026-05-04 02:21 25.79692 -79.75639 7040 ft 206 kts 95°
2026-05-04 02:21 25.79617 -79.74064 7014 ft 207 kts 95°
2026-05-04 02:21 25.79547 -79.72454 6968 ft 208 kts 94°
2026-05-04 02:21 25.79489 -79.70837 6869 ft 210 kts 94°
2026-05-04 02:22 25.79438 -79.69230 6766 ft 211 kts 93°
2026-05-04 02:22 25.79392 -79.67597 6671 ft 212 kts 94°
2026-05-04 02:22 25.79306 -79.65955 6568 ft 213 kts 96°
2026-05-04 02:22 25.79171 -79.64337 6466 ft 213 kts 98°
2026-05-04 02:23 25.78991 -79.62701 6357 ft 213 kts 100°
2026-05-04 02:23 25.78753 -79.61070 6237 ft 213 kts 102°
2026-05-04 02:23 25.78472 -79.59457 6125 ft 213 kts 104°
2026-05-04 02:23 25.78160 -79.57849 6015 ft 213 kts 104°
2026-05-04 02:24 25.77848 -79.56256 5901 ft 213 kts 104°
2026-05-04 02:24 25.77530 -79.54644 5779 ft 213 kts 105°
2026-05-04 02:24 25.77153 -79.53054 5661 ft 212 kts 108°
2026-05-04 02:24 25.76754 -79.51496 5540 ft 212 kts 109°
2026-05-04 02:25 25.76338 -79.49920 5427 ft 212 kts 108°
2026-05-04 02:25 25.75925 -79.48346 5306 ft 212 kts 108°
2026-05-04 02:25 25.75513 -79.46775 5189 ft 211 kts 108°
2026-05-04 02:25 25.75100 -79.45208 5072 ft 211 kts 108°
2026-05-04 02:26 25.74691 -79.43668 4946 ft 211 kts 108°
2026-05-04 02:26 25.74274 -79.42112 4840 ft 210 kts 108°
2026-05-04 02:26 25.73860 -79.40565 4716 ft 205 kts 108°
2026-05-04 02:26 25.73462 -79.39062 4573 ft 201 kts 107°
2026-05-04 02:27 25.73277 -79.37531 4421 ft 199 kts 94°
2026-05-04 02:27 25.73296 -79.36013 4267 ft 198 kts 86°
2026-05-04 02:27 25.73441 -79.34494 4115 ft 196 kts 83°
2026-05-04 02:27 25.73623 -79.33035 3962 ft 189 kts 82°
2026-05-04 02:28 25.73804 -79.31620 3823 ft 182 kts 83°
2026-05-04 02:28 25.73957 -79.30242 3669 ft 178 kts 84°
2026-05-04 02:28 25.74082 -79.28874 3519 ft 176 kts 85°
2026-05-04 02:28 25.74185 -79.27540 3363 ft 174 kts 85°
2026-05-04 02:29 25.74288 -79.26205 3199 ft 173 kts 86°
2026-05-04 02:29 25.74366 -79.24880 3027 ft 171 kts 88°
2026-05-04 02:29 25.74438 -79.23578 2874 ft 169 kts 87°
2026-05-04 02:29 25.74506 -79.22308 2716 ft 159 kts 87°
2026-05-04 02:30 25.74567 -79.21113 2531 ft 150 kts 88°
2026-05-04 02:30 25.74622 -79.20001 2355 ft 143 kts 87°
2026-05-04 02:30 25.74615 -79.18930 2203 ft 134 kts 103°
2026-05-04 02:30 25.74097 -79.18110 2003 ft 131 kts 144°
2026-05-04 02:31 25.73546 -79.17865 1909 ft 127 kts 170°
2026-05-04 02:31 25.72447 -79.18259 1629 ft 129 kts 228°
2026-05-04 02:31 25.72020 -79.19098 1562 ft 119 kts 234°
2026-05-04 02:31 25.71500 -79.19778 1429 ft 113 kts 222°
2026-05-04 02:32 25.70914 -79.20325 1154 ft 110 kts 218°
2026-05-04 02:32 25.70373 -79.20903 929 ft 107 kts 224°
2026-05-04 02:32 25.69960 -79.21554 775 ft 96 kts 245°
2026-05-04 02:32 25.69858 -79.22008 715 ft 88 kts 263°
2026-05-04 02:33 25.69919 -79.22878 566 ft 83 kts 275°
2026-05-04 02:33 25.69944 -79.23295 489 ft 81 kts 272°
2026-05-04 02:33 25.69978 -79.23927 391 ft 82 kts 273°
2026-05-04 02:33 25.69994 -79.24564 286 ft 83 kts 268°
2026-05-04 02:34 25.69988 -79.25206 159 ft 84 kts 269°
2026-05-04 02:34 25.69990 -79.25856 29 ft 82 kts 269°
2026-05-04 02:34 25.69988 -79.26409 18 ft 62 kts 279°
2026-05-04 02:34 25.69994 -79.26738 16 ft 28 kts 269°
2026-05-04 02:35 25.69998 -79.26931 16 ft 22 kts 271°
2026-05-04 02:35 25.69999 -79.27083 17 ft 17 kts 270°
2026-05-04 02:35 25.69998 -79.27195 18 ft 12 kts 269°
2026-05-04 02:35 25.70009 -79.27266 19 ft 9 kts 324°
2026-05-04 02:36 25.70072 -79.27275 18 ft 10 kts 43°
2026-05-04 02:36 25.70094 -79.27209 18 ft 8 kts 28°
2026-05-04 02:36 25.70123 -79.27192 18 ft 3 kts 98°
2026-05-04 02:36 25.70122 -79.27184 18 ft 0 kts 112°